Tracking 30923 objects as of 1-Jul-2025
HD Live streaming from Space Station
objects crossing your sky now

STARLINK-31816

Track STARLINK-31816 now!
10-day predictions
STARLINK-31816 is classified as:


NORAD ID: 59742
Int'l Code: 2024-090N
Perigee: 489.4 km
Apogee: 491.0 km
Inclination: 43.0 °
Period: 94.3 minutes
Semi major axis: 6861 km
RCS: Unknown
Launch date: May 13, 2024
Source: United States (US)
Launch site: AIR FORCE EASTERN TEST RANGE (AFETR)
Your satellite tracking list
Your tracking list is empty




NASA's NSSDC Master Catalog

Two Line Element Set (TLE):
1 59742U 24090N   25181.67848271 -.00000421  00000-0 -57832-5 0  9991
2 59742  43.0017 167.1040 0001205 282.8374  77.2343 15.27576696 64870
Source of the keplerian elements: AFSPC